FW8999 Weather Reports


time (UTC)temp
C
wind
direction
speed
KPH
gust
KPH
rain 1hr
cm
rain 24hr
cm
rain mn
cm
humidity
%
barometer
mb
20260507030614 10 334 1.6 1.6 0.00 2.62 2.62 97 1013.6
20260507025609 11 11 0.0 0.0 0.00 2.62 2.62 97 1013.6
20260507024604 11 11 0.0 0.0 0.00 2.62 2.62 98 1013.5
20260507023602 11 356 1.6 3.2 0.00 2.62 2.62 97 1013.5
20260507022557 11 354 0.0 0.0 0.13 2.62 2.62 98 1013.4
20260507021554 12 32 0.0 0.0 0.00 2.59 2.59 98 1013.2
20260507020549 12 340 1.6 3.2 0.18 2.59 2.59 98 1013.3
20260507015549 12 349 0.0 0.0 0.18 2.57 2.57 98 1013.2
20260507014549 12 9 0.0 0.0 0.00 2.54 2.54 98 1013.2
20260507013547 12 327 0.0 0.0 0.00 2.54 2.54 98 1013.2
20260507012542 13 344 0.0 0.0 0.00 2.54 2.54 98 1013.1
20260507011541 13 355 0.0 0.0 0.13 2.54 2.54 98 1013.2
20260507010538 13 355 0.0 0.0 0.00 2.51 2.51 98 1013.1
20260507005532 15 12 0.0 0.0 0.00 2.51 2.51 98 1012.9
20260507004531 15 12 0.0 0.0 0.00 2.51 2.51 98 1012.7
20260507003530 15 20 0.0 0.0 0.00 2.51 2.51 98 1012.8
20260507002528 15 22 0.0 0.0 0.00 2.51 2.51 98 1012.8
20260507001526 15 27 0.0 0.0 0.00 2.51 2.51 98 1012.7
20260507000526 15 44 0.0 0.0 0.00 2.51 2.51 98 1012.8
20260506235525 15 21 0.0 0.0 0.00 2.51 2.51 98 1012.6
20260506234524 15 281 0.0 0.0 0.18 2.51 2.51 98 1012.4
20260506233524 15 58 0.0 0.0 0.30 2.49 2.49 98 1012.4
20260506232523 15 20 0.0 0.0 0.13 2.44 2.44 98 1012.1
20260506231522 15 31 0.0 0.0 0.30 2.41 2.41 98 1012.1
20260506230521 15 22 0.0 0.0 0.30 2.36 2.36 97 1012.3
20260506225516 15 9 0.0 0.0 0.18 2.31 2.31 97 1012.4
20260506224515 15 349 0.0 0.0 0.13 2.29 2.29 97 1012.2
20260506223512 15 6 0.0 0.0 0.48 2.26 2.26 97 1012.4
20260506222511 15 234 0.0 0.0 0.30 2.18 2.18 97 1012.6
20260506221510 15 261 0.0 0.0 0.18 2.13 2.13 97 1012.4
20260506220508 15 260 0.0 0.0 0.30 2.11 2.11 97 1013.0
20260506215507 15 294 0.0 0.0 0.13 2.06 2.06 97 1012.9
20260506214505 15 357 0.0 0.0 0.30 2.03 2.03 97 1013.2
20260506213500 15 90 0.0 0.0 0.00 1.98 1.98 97 1013.2
20260506212459 15 10 0.0 0.0 0.48 1.98 1.98 97 1013.5
20260506211456 15 341 0.0 0.0 0.18 1.91 1.91 97 1013.3
20260506210456 15 357 0.0 0.0 0.13 1.88 1.88 97 1013.6
20260506205455 15 4 0.0 0.0 0.00 1.85 1.85 97 1013.5
20260506204455 15 10 0.0 0.0 0.00 1.85 1.85 97 1013.8
20260506203455 15 316 0.0 0.0 0.00 1.85 1.85 97 1013.7
20260506202455 15 321 0.0 0.0 0.00 1.85 1.85 97 1013.8
20260506201455 15 355 0.0 0.0 0.30 1.85 1.85 97 1013.5
20260506200454 15 216 0.0 0.0 0.18 1.80 1.80 97 1013.8
20260506195454 15 339 0.0 0.0 0.30 1.78 1.78 97 1013.9
20260506194448 15 253 0.0 0.0 0.13 1.73 1.73 97 1014.0
20260506193447 15 341 0.0 0.0 0.30 1.70 1.70 97 1014.1
20260506192447 15 34 0.0 0.0 0.18 1.65 1.65 97 1014.3
20260506191446 15 25 0.0 0.0 0.48 1.63 1.63 97 1014.3
20260506190445 15 8 0.0 0.0 0.30 1.57 1.57 97 1014.3
20260506185445 15 348 0.0 0.0 0.48 1.52 1.52 97 1014.4
20260506184445 15 357 0.0 0.0 0.13 1.45 1.45 97 1014.6
20260506183443 15 18 0.0 0.0 0.48 1.42 1.42 97 1014.6
20260506182438 15 30 0.0 0.0 0.30 1.35 1.35 97 1014.9
20260506181433 15 51 1.6 1.6 0.61 1.30 1.30 96 1015.0
20260506180431 15 33 0.0 0.0 0.89 1.19 1.19 96 1015.2
20260506175431 15 24 0.0 0.0 2.16 1.04 1.04 95 1015.3
20260506174426 15 355 0.0 0.0 2.77 0.69 0.69 95 1015.3
20260506173425 15 28 0.0 0.0 0.89 0.23 0.23 93 1015.2
20260506172425 16 17 0.0 0.0 0.30 0.08 0.08 90 1015.0
20260506171425 17 42 0.0 0.0 0.00 0.03 0.03 87 1014.9
20260506170425 17 42 0.0 0.0 0.00 0.03 0.03 82 1014.9
20260506165422 17 33 0.0 0.0 0.00 0.03 0.03 81 1015.3
20260506164420 17 315 0.0 0.0 0.00 0.03 0.03 81 1015.5
20260506163419 17 41 1.6 3.2 0.00 0.03 0.03 84 1015.7
20260506162418 17 34 0.0 0.0 0.18 0.03 0.03 83 1016.1
20260506161413 17 294 1.6 1.6 0.00 0.00 0.00 83 1016.5
20260506160413 17 37 0.0 0.0 0.00 0.00 0.00 83 1016.6
20260506155408 17 187 1.6 3.2 0.00 0.00 0.00 81 1017.0
20260506153530 17 242 0.0 0.0 0.00 0.00 0.00 77 1016.8
20260506152530 17 63 0.0 0.0 0.00 0.00 0.00 79 1016.9
20260506151526 17 237 3.2 3.2 0.00 0.00 0.00 78 1017.0
20260506150525 17 253 3.2 3.2 0.00 0.00 0.00 78 1017.0
20260506145525 17 276 1.6 1.6 0.00 0.00 0.00 77 1017.1
20260506144524 17 296 1.6 1.6 0.00 0.00 0.00 76 1017.1
20260506143520 17 358 0.0 0.0 0.00 0.00 0.00 77 1016.9
20260506142515 17 30 1.6 1.6 0.00 0.00 0.00 76 1017.0
20260506141511 17 238 1.6 1.6 0.00 0.00 0.00 77 1016.6
20260506140506 17 343 0.0 0.0 0.00 0.00 0.00 78 1016.8
20260506135506 17 250 1.6 1.6 0.00 0.00 0.00 77 1017.1
20260506134503 17 255 1.6 3.2 0.00 0.00 0.00 77 1017.3
20260506133503 17 356 0.0 0.0 0.00 0.00 0.00 78 1017.4
20260506132502 16 8 1.6 1.6 0.00 0.00 0.00 80 1017.4
20260506131457 16 225 1.6 1.6 0.00 0.00 0.00 80 1017.3
20260506130456 16 334 0.0 0.0 0.00 0.00 0.00 81 1017.2
20260506125452 16 215 3.2 3.2 0.00 0.00 0.00 80 1017.1
20260506124447 16 316 0.0 0.0 0.00 0.00 0.00 81 1017.4
20260506123442 16 296 0.0 0.0 0.00 0.00 0.00 81 1017.5
20260506122442 16 293 1.6 1.6 0.00 0.00 0.00 81 1017.4
20260506121437 16 301 0.0 0.0 0.00 0.00 0.00 86 1017.8
20260506120432 15 311 0.0 0.0 0.00 0.00 0.00 87 1017.9
20260506115427 15 311 0.0 0.0 0.00 0.00 0.00 90 1017.6
20260506114422 13 315 0.0 0.0 0.00 0.00 0.00 91 1017.6
20260506113418 13 336 0.0 0.0 0.00 0.00 0.00 93 1018.0
20260506112418 13 336 0.0 0.0 0.00 0.00 0.00 94 1017.8
20260506111413 13 352 0.0 0.0 0.00 0.00 0.00 95 1017.7
20260506110414 12 352 0.0 0.0 0.00 0.00 0.00 95 1018.0
20260506105412 12 352 0.0 0.0 0.00 0.00 0.00 95 1017.9
20260506104407 12 352 0.0 0.0 0.00 0.00 0.00 96 1017.7
20260506103402 12 353 0.0 0.0 0.00 0.00 0.00 95 1017.7
20260506102357 11 353 0.0 0.0 0.00 0.00 0.00 95 1017.7
20260506101356 11 354 0.0 0.0 0.00 0.00 0.00 95 1017.4
20260506100352 11 352 0.0 0.0 0.00 0.00 0.00 95 1017.6
20260506095347 11 354 0.0 0.0 0.00 0.00 0.00 95 1017.4
20260506094343 12 354 0.0 0.0 0.00 0.00 0.00 95 1017.4
20260506093343 12 354 0.0 0.0 0.00 0.00 0.00 95 1017.3
20260506092339 12 354 0.0 0.0 0.00 0.00 0.00 95 1017.3
20260506091339 12 354 0.0 0.0 0.00 0.00 0.00 95 1017.6
20260506090339 12 354 0.0 0.0 0.00 0.00 0.00 94 1017.4
20260506085338 12 338 0.0 0.0 0.00 0.00 0.00 94 1017.3
20260506084338 12 327 0.0 0.0 0.00 0.00 0.00 94 1017.3
20260506083337 12 308 0.0 0.0 0.00 0.00 0.00 94 1017.1
20260506082337 13 309 0.0 0.0 0.00 0.00 0.00 93 1017.5
20260506081337 13 343 0.0 0.0 0.00 0.00 0.00 93 1017.3
20260506080337 13 343 0.0 0.0 0.00 0.00 0.00 92 1017.2
20260506073327 14 328 0.0 0.0 0.00 0.00 0.00 91 1016.8
20260506072327 14 222 0.0 0.0 0.00 0.00 0.00 90 1016.7
20260506071323 14 8 0.0 0.0 0.00 0.00 0.00 90 1016.9
20260506070322 14 8 0.0 0.0 0.00 0.00 0.00 90 1016.8
20260506062306 15 350 0.0 0.0 0.00 0.00 0.00 88 1016.3
20260506061304 15 335 0.0 0.0 0.00 0.00 0.00 88 1016.4
20260506060300 15 18 0.0 0.0 0.00 0.00 0.00 86 1016.5
20260506051249 15 358 0.0 0.0 0.00 0.00 0.00 86 1016.6
20260506050244 15 289 0.0 0.0 0.00 0.00 0.00 87 1016.6
20260506044243 16 222 0.0 0.0 0.00 0.00 0.00 83 1016.6
20260506043238 16 9 0.0 0.0 0.00 0.00 0.00 80 1016.7
20260506042235 16 59 0.0 0.0 0.00 0.00 0.00 78 1016.7
20260506041230 16 38 0.0 0.0 0.00 0.00 0.00 79 1016.6
20260506040230 16 13 0.0 0.0 0.00 0.00 0.00 81 1016.6
20260506035229 16 301 0.0 0.0 0.00 0.03 0.03 84 1016.7
20260506034229 16 41 0.0 0.0 0.00 0.03 0.03 84 1016.9
20260506033230 16 40 0.0 0.0 0.00 0.03 0.03 84 1016.9
20260506032229 16 38 0.0 0.0 0.00 0.03 0.03 85 1017.1